Dinard-Pleurtuit-Saint-Malo Airport

Jump to: basic info | weather | frequencies | runways | comments

Related pages: nearby airports | nearby navaids | notams | map

Basic information (top)

Codes: DNR LFRD
Location: lon 48.587700, lat -2.079960, elev 219 ft / 67 m msl
Status: medium_airport
Scheduled airline service: yes
Links: Wikipedia Mobile

Weather (top)

Current conditions (rec'd 2015/04/26 01:00Z):

LFRD 260100Z AUTO 20004KT 9999 NSC 10/09 Q1007

Airport forecast (rec'd 2015/04/25 00:14Z):

TAF LFRD 252300Z 2600/2624 21010KT 9999 BKN010 
      BECMG 2602/2604 VRB03KT 
      BECMG 2608/2610 BKN015 
      BECMG 2610/2612 36010KT 
      TEMPO 2610/2621 5000 RA BKN010 
      TEMPO 2620/2624 01015G25KT

Frequencies (top)

Verify before use: may be inaccurate or out of date.

ATIS: 124.575 MHz (DINARD ATIS)
TWR: 120.15 MHz (DINARD TWR)

Runways (top)

12/30: 4,708 x 148 ft (1,435 x 45 m) — paved — not lighted — threshold 30 displaced 476 ft (145 m)

17/35: 7,218 x 148 ft (2,200 x 45 m) — paved — lighted

Latest comments (top)

No comments yet for Dinard-Pleurtuit-Saint-Malo Airport

More... (top)

See also NOTAMs and nearby airports and navaids, or visit the Dinard-Pleurtuit-Saint-Malo Airport page at the main OurAirports website..